{"data":{"norad_id":56171,"intl_designator":"2023-050K","name":"BB 1","alt_names":[],"object_type":"PAYLOAD","status":"ACTIVE","operator":null,"country":"US","launch_date":"2023-04-02","launch_site_code":"AFWTR","launch_vehicle":null,"mission":null,"orbit_class":"UNKNOWN","rcs_meters":null,"size_class":null,"mass_kg":null,"dimensions":null,"purposes":[],"wikipedia_slug":null,"has_3d_model":false,"image_url":null,"decayed_at":null,"tle_current":{"epoch":"2026-09-21T16:24:36.133056Z","epoch_age_seconds":85059,"freshness":"FRESH","line1":"1 56171U 23050K   26264.68375154  .00000193  00000+0  64336-4 0  9997","line2":"2 56171  81.0054 344.3733 0016255  40.7063 319.5332 14.34283152175121","mean_motion":14.34283152,"eccentricity":0.0016255,"inclination_deg":81.0054,"raan_deg":344.3733,"arg_perigee_deg":40.7063,"mean_anomaly_deg":319.5332,"bstar":6.4336e-5,"rev_number":17512,"period_min":100.39858573198,"perigee_km":765.81821456505,"apogee_km":789.08102666868,"semimajor_km":7155.5866206169,"source":"CELESTRAK","updated_at":"2026-09-22T09:00:25.733186Z"}}}